STARLINK-32310

Last updated on Thu Nov 21 2024 00:02:04 GMT+0000 (Coordinated Universal Time)

1 61662U 24193B 24325.58335648 -.01535759 00000+0 -36269-1 0 9991 2 61662 53.1596 137.8419 0001064 84.0426 263.5432 15.44401181 5166
UTC large
Height (km)
Speed (km/s)
/
Latitude / Longitude
Inclination (degrees)
Orbital Period (minutes)
Azimuth
Elevation
Range (km)
Doppler Factor

Next 0 passes for location: London (51.5072 / 0.1276)

Sorry there are no passes over London.